Location: Myrnam
(53.6612°N, 111.2289°W)
Time: 13:16:00
(UTC+00:00)

SO-50 - Pass Details

Date: 07 December 2023
Orbit: 607 x 661 km, 64.6° (Epoch: 21 February)

Event Time Altitude Azimuth Distance (km) Brightness Sun altitude
Exits shadow 13:47:32 18° 316° (NW) 1,588 ? -13.6°
Maximum altitude 13:49:25 23° 349° (N) 1,384 ? -13.4°
Drops below altitude 10° 13:53:04 10° 42° (NE) 2,029 ? -12.9°
Sets 13:55:46 0° 57° (ENE) 2,927 ? -12.5°
